Location: Rancho Del Sol Observatory
(38.7214°N, 120.6350°W)
Time: 02:21:31
(UTC-08:00)

Daily predictions for brighter satellites

Satellite Brightness Start Highest point End
(mag) Time Altitude Azimuth Time Altitude Azimuth Time Altitude Azimuth
Cosmos 1943 Rocket 4.5 03:09:50 19° E 03:09:50 19° E 03:12:26 10° NE
ATLAS CENTAUR R/B 4.1 03:15:18 47° ENE 03:15:18 47° ENE 03:26:36 10° ESE
Lacrosse 5 3.4 03:49:14 33° ENE 03:49:14 33° ENE 03:52:10 10° NE
ADEOS II 3.4 03:45:05 10° NNE 03:48:14 35° NE 03:48:14 35° NE
USA 234 3.2 03:51:06 10° NE 03:57:36 77° SE 03:57:36 77° SE
Cosmos 2369 Rocket 3.4 04:07:22 33° N 04:07:22 33° N 04:10:32 10° NNE
Cosmos 407 Rocket 4.2 04:08:27 23° N 04:11:42 53° ENE 04:16:52 10° SE
Cosmos 1833 4.5 04:23:54 13° NNW 04:28:50 65° ENE 04:34:23 10° SSE
GEOS 3 Rocket 3.6 04:26:42 10° SSE 04:31:07 63° S 04:31:07 63° S
Okean 1-7 4.3 04:31:10 10° SSE 04:35:08 39° E 04:39:06 10° NNE
Tiangong 1 3.4 04:39:12 23° ENE 04:39:12 23° ENE 04:40:28 10° ENE
Cosmos 1190 Rocket 3.8 04:37:57 62° NW 04:38:45 75° WSW 04:44:00 10° S
Sich 1 Rocket 3.5 04:35:11 10° N 04:39:44 89° ENE 04:44:13 10° S
Cosmos 1908 Rocket 3.5 04:37:21 10° N 04:41:52 89° E 04:46:20 10° S
ATLAS 5 CENTAUR R/B 2.5 04:45:45 38° NNW 04:45:45 38° NNW 04:49:55 10° NNE
Cosmos 1782 Rocket 4.1 04:42:59 10° N 04:47:24 58° E 04:51:46 10° SSE
Meteor 2-10 Rocket 3.4 04:43:41 12° S 04:48:20 85° E 04:53:24 10° N
Okean-O 2.5 04:45:06 10° N 04:49:33 83° WNW 04:50:58 43° SSW
Cosmos 1943 Rocket 2.3 04:51:24 48° WNW 04:51:44 48° WNW 04:57:07 10° NNE
Cosmos 2056 Rocket 4.3 04:55:13 32° NW 04:55:13 32° NW 04:58:59 10° N
CZ-4B R/B 4.0 04:49:32 10° N 04:53:54 34° NW 04:53:54 34° NW
Meteor 1-14 Rocket 4.2 04:57:43 10° N 05:03:35 89° E 05:09:15 10° S
Cosmos 1954 Rocket 4.0 05:00:27 10° NNW 05:05:47 90° ENE 05:11:07 10° SSE
CZ-4C R/B 2.0 05:03:56 24° SW 05:07:12 84° WNW 05:13:06 10° NNE
Cosmos 1244 Rocket 4.4 05:02:45 10° NNW 05:08:55 65° W 05:15:00 10° S
Okean 2 Rocket 3.1 05:06:00 10° N 05:10:25 78° E 05:14:48 10° S
NOAA 6 4.0 05:05:21 10° NNE 05:10:32 89° WNW 05:15:41 10° SSW
Cosmos 1420 Rocket 4.0 05:05:47 10° SSW 05:10:56 82° ESE 05:16:09 10° NNE
Cosmos 1606 4.4 05:07:55 10° SSE 05:11:27 35° E 05:15:01 10° NNE
FAST 4.5 05:17:26 10° N 05:20:05 78° W 05:23:31 10° S
Cosmos 1703 Rocket 4.0 05:18:40 28° WSW 05:20:09 38° WNW 05:24:15 10° N
Meteor 1-26 Rocket 4.5 05:18:15 10° SSW 05:23:41 45° WNW 05:29:04 10° N
Thor Agena Rocket 3.7 05:18:56 10° S 05:23:57 48° W 05:28:58 10° NNW
SL-08 R/B 4.4 05:18:03 10° N 05:24:23 78° W 05:30:42 10° S
Meteor 1-31 Rocket 3.6 05:22:20 10° N 05:25:42 28° WNW 05:25:51 28° WNW
ADEOS II 3.6 05:26:07 10° NNW 05:29:11 17° WNW 05:29:11 17° WNW
Cosmos 2151 Rocket 4.3 05:25:07 10° N 05:29:35 58° E 05:33:58 10° SSE
Lacrosse 5 2.9 05:28:28 22° WNW 05:30:26 28° NW 05:34:50 10° NNE
CZ-4 R/B 4.1 05:28:28 10° NE 05:31:47 23° E 05:35:05 10° SSE
Meteor 1-25 Rocket 4.2 05:27:34 10° NNW 05:33:23 73° W 05:39:12 10° S
S3M 4.0 05:27:12 10° SSW 05:33:29 63° W 05:39:44 10° N
SL-12 R/B (Aux Motor) 4.3 05:32:39 20° NW 05:34:36 59° NNE 05:36:37 10° ESE
Cosmos 1452 Rocket 4.1 05:31:29 14° SW 05:35:35 36° WNW 05:40:28 10° N
Cosmos 1607 4.4 05:31:00 10° SSW 05:37:01 65° ESE 05:43:08 10° NE
USA 234 4.0 05:34:29 10° NNE 05:40:16 35° NNW 05:44:59 15° W
Cosmos 1553 Rocket 4.1 05:35:22 10° SSW 05:41:20 52° W 05:47:27 10° N
COSMO-SKYMED 1 2.8 05:41:23 10° S 05:45:35 48° W 05:49:48 10° NNW
Cosmos 2219 3.1 05:40:32 10° NNW 05:46:11 69° WSW 05:51:45 10° SSE
Cosmos 1741 Rocket 4.0 05:43:12 10° NNW 05:48:27 81° WSW 05:53:42 10° SSE
Cosmos 2227 Rocket 3.5 05:47:33 10° N 05:52:56 41° ENE 05:58:15 10° SE
Meteor 1-10 Rocket 4.2 05:47:50 10° SSW 05:53:21 69° W 05:58:59 10° N
Cosmos 1656 Rocket 4.5 05:53:13 10° WSW 05:58:13 31° WNW 06:03:15 10° N
Meteor 2-11 Rocket 4.4 05:52:23 10° SSW 05:58:24 63° W 06:04:30 10° N
USA 81 4.3 05:56:33 10° SSW 06:01:37 48° W 06:06:44 10° N
Cosmos 1536 4.4 06:03:16 10° N 06:07:03 40° ENE 06:10:50 10° SSE
ATLAS 3B R/B 2.9 05:59:33 10° SW 06:07:10 81° WNW 06:14:32 10° NNE
Tiangong 1 1.8 06:10:54 10° WNW 06:13:39 37° N 06:16:27 10° ENE
Cosmos 1709 Rocket 4.0 06:07:50 10° N 06:13:58 82° W 06:20:06 10° S
Cosmos 1140 Rocket 4.4 06:09:40 10° NW 06:14:00 27° W 06:18:20 10° SSW
Lacrosse 5 rocket 2.9 06:10:59 10° NNW 06:14:03 26° NE 06:17:09 10° E
